Kill Devil Hills, NC

3:34 AM EDT on May 25, 2018 (GMT -0400)
First Flight

Weather History for KFFA - September, 2012

Change the Weather History Date:

Sunday, September 16, 2012

  Actual Average (KMQI) Record (KMQI)
Temperature  
Mean Temperature 70 °F -  
Max Temperature 75 °F 77 °F 89 °F (1972)
Min Temperature 66 °F 67 °F 57 °F (1983)
Cooling Degree Days 6    
Growing Degree Days 20 (Base 50)    
Moisture  
Dew Point 52 °F    
Average Humidity 52    
Maximum Humidity 64    
Minimum Humidity 37    
Precipitation  
Precipitation 0.00 in - - ()
Sea Level Pressure  
Sea Level Pressure 30.12 in    
Wind  
Wind Speed 3 mph (NNE)    
Max Wind Speed 7 mph    
Max Gust Speed -    
Visibility 10 miles    
Events      
Averages and records for this station are not official NWS values.
T = Trace of Precipitation, MM = Missing Value Source: NWS Daily Summary

Daily Weather History Graph

Daily Weather History Graph

Search for Another Location

Airport or City:

Astronomy

Sep. 16, 2012 Rise Set
Actual Time 6:46 AM EDT 7:07 PM EDT
Civil Twilight 6:20 AM EDT 7:33 PM EDT
Nautical Twilight 5:50 AM EDT 8:03 PM EDT
Astronomical Twilight 5:19 AM EDT 8:34 PM EDT
Moon 7:19 AM EDT (9/16) 7:15 PM EDT (9/16)
Length of Visible Light 13h 12m
Length of Day
12h 21m
New Moon, 0% of the Moon is Illuminated
Sep 16
New Moon
Sep 22
First Quarter
Sep 29
Full
Oct 8
Last Quarter
Oct 15
New

Hourly Weather History & Observations

Time (EDT) Temp. Dew Point Humidity Pressure Visibility Wind Dir Wind Speed Gust Speed Precip Events Conditions
12:15 AM 68.7 °F 52.9 °F 57% 30.13 in 10.0 mi North 4.6 mph - N/A   Clear
12:35 AM 68.7 °F 52.0 °F 55% 30.12 in 10.0 mi North 4.6 mph - N/A   Clear
12:55 AM 68.7 °F 50.2 °F 52% 30.12 in 10.0 mi North 5.8 mph - N/A   Clear
1:15 AM 68.5 °F 49.6 °F 51% 30.12 in 10.0 mi NE 3.5 mph - N/A   Clear
1:35 AM 68.4 °F 49.8 °F 51% 30.12 in 10.0 mi NNE 3.5 mph - N/A   Clear
1:55 AM 68.5 °F 49.3 °F 50% 30.12 in 10.0 mi North 4.6 mph - N/A   Clear
2:15 AM 68.7 °F 48.2 °F 48% 30.11 in 10.0 mi North 4.6 mph - N/A   Clear
2:35 AM 68.4 °F 48.6 °F 49% 30.11 in 10.0 mi Calm Calm - N/A   Clear
2:55 AM 68.0 °F 49.6 °F 52% 30.11 in 10.0 mi NNE 4.6 mph - N/A   Clear
3:15 AM 68.0 °F 50.7 °F 54% 30.10 in 10.0 mi North 3.5 mph - N/A   Clear
3:55 AM 67.6 °F 52.2 °F 58% 30.11 in 10.0 mi Calm Calm - N/A   Clear
4:15 AM 67.6 °F 53.4 °F 60% 30.11 in 10.0 mi Calm Calm - N/A   Clear
4:35 AM 67.5 °F 53.6 °F 61% 30.11 in 10.0 mi Calm Calm - N/A   Clear
4:55 AM 67.5 °F 53.6 °F 61% 30.11 in 10.0 mi Calm Calm - N/A   Clear
5:15 AM 67.3 °F 52.9 °F 60% 30.12 in 10.0 mi Calm Calm - N/A   Clear
5:35 AM 67.3 °F 53.6 °F 61% 30.12 in 10.0 mi Calm Calm - N/A   Clear
5:55 AM 67.1 °F 53.8 °F 62% 30.12 in 10.0 mi Calm Calm - N/A   Clear
6:15 AM 66.7 °F 53.1 °F 61% 30.13 in 10.0 mi Calm Calm - N/A   Clear
6:35 AM 66.6 °F 51.4 °F 58% 30.13 in 10.0 mi Calm Calm - N/A   Clear
6:55 AM 66.9 °F 50.5 °F 56% 30.14 in 10.0 mi Calm Calm - N/A   Clear
7:15 AM 67.1 °F 51.3 °F 57% 30.14 in 10.0 mi Calm Calm - N/A   Clear
7:35 AM 67.8 °F 51.6 °F 56% 30.14 in 10.0 mi Calm Calm - N/A   Clear
8:15 AM 70.2 °F 52.0 °F 52% 30.14 in 10.0 mi NNE 3.5 mph - N/A   Clear
8:35 AM 70.7 °F 52.5 °F 52% 30.14 in 10.0 mi NNE 3.5 mph - N/A   Clear
8:55 AM 71.1 °F 51.8 °F 50% 30.14 in 10.0 mi NE 5.8 mph - N/A   Clear
9:15 AM 72.3 °F 50.5 °F 46% 30.14 in 10.0 mi NNE 3.5 mph - N/A   Clear
9:35 AM 72.7 °F 50.0 °F 45% 30.15 in 10.0 mi NE 5.8 mph - N/A   Clear
9:55 AM 71.8 °F 51.3 °F 48% 30.15 in 10.0 mi Calm Calm - N/A   Clear
10:15 AM 73.0 °F 50.9 °F 46% 30.16 in 10.0 mi North 6.9 mph - N/A   Clear
10:35 AM 73.6 °F 49.5 °F 43% 30.15 in 10.0 mi NNE 3.5 mph - N/A   Clear
10:55 AM 73.4 °F 49.1 °F 42% 30.15 in 10.0 mi NNE 5.8 mph - N/A   Clear
11:15 AM 73.2 °F 49.1 °F 42% 30.15 in 10.0 mi NE 3.5 mph - N/A   Clear
11:35 AM 74.1 °F 49.5 °F 42% 30.15 in 10.0 mi NE 4.6 mph - N/A   Clear
11:55 AM 74.3 °F 48.0 °F 39% 30.15 in 10.0 mi NNE 3.5 mph - N/A   Clear
12:15 PM 74.8 °F 47.8 °F 38% 30.14 in 10.0 mi North 3.5 mph - N/A   Clear
12:35 PM 75.0 °F 47.3 °F 37% 30.14 in 10.0 mi NE 6.9 mph - N/A   Clear
12:55 PM 74.7 °F 47.7 °F 38% 30.14 in 10.0 mi NNE 6.9 mph - N/A   Clear
1:15 PM 73.9 °F 48.9 °F 41% 30.14 in 10.0 mi North 5.8 mph - N/A   Clear
1:35 PM 74.3 °F 49.5 °F 41% 30.14 in 10.0 mi North 4.6 mph - N/A   Clear
1:55 PM 74.7 °F 48.7 °F 40% 30.13 in 10.0 mi North 6.9 mph - N/A   Clear
2:15 PM 74.1 °F 48.7 °F 41% 30.13 in 10.0 mi NNE 4.6 mph - N/A   Clear
2:35 PM 74.1 °F 50.4 °F 43% 30.12 in 10.0 mi NE 3.5 mph - N/A   Clear
2:55 PM 74.3 °F 49.6 °F 42% 30.12 in 10.0 mi North 5.8 mph - N/A   Clear
3:15 PM 74.1 °F 49.1 °F 41% 30.12 in 10.0 mi NE 3.5 mph - N/A   Scattered Clouds
3:35 PM 72.3 °F 49.1 °F 44% 30.11 in 10.0 mi Calm Calm - N/A   Scattered Clouds
3:55 PM 72.1 °F 51.3 °F 48% 30.10 in 10.0 mi NNE 3.5 mph - N/A   Scattered Clouds
4:15 PM 72.0 °F 51.6 °F 49% 30.10 in 10.0 mi NE 3.5 mph - N/A   Scattered Clouds
4:35 PM 71.8 °F 52.0 °F 50% 30.09 in 10.0 mi Calm Calm - N/A   Mostly Cloudy
4:55 PM 71.8 °F 52.5 °F 51% 30.10 in 10.0 mi Calm Calm - N/A   Scattered Clouds
5:15 PM 71.4 °F 52.9 °F 52% 30.09 in 10.0 mi Calm Calm - N/A   Scattered Clouds
5:35 PM 71.1 °F 53.2 °F 53% 30.09 in 10.0 mi Calm Calm - N/A   Mostly Cloudy
5:55 PM 70.7 °F 52.9 °F 53% 30.09 in 10.0 mi Calm Calm - N/A   Mostly Cloudy
6:15 PM 70.7 °F 53.4 °F 54% 30.09 in 10.0 mi ENE 3.5 mph - N/A   Scattered Clouds
6:35 PM 70.7 °F 53.4 °F 54% 30.09 in 10.0 mi Calm Calm - N/A   Scattered Clouds
6:55 PM 70.2 °F 53.1 °F 55% 30.09 in 10.0 mi East 3.5 mph - N/A   Scattered Clouds
7:15 PM 70.3 °F 52.9 °F 54% 30.09 in 10.0 mi Calm Calm - N/A   Scattered Clouds
7:35 PM 70.2 °F 53.4 °F 55% 30.09 in 10.0 mi East 3.5 mph - N/A   Scattered Clouds
7:55 PM 70.2 °F 53.6 °F 56% 30.09 in 10.0 mi Calm Calm - N/A   Scattered Clouds
8:15 PM 70.0 °F 54.1 °F 57% 30.10 in 10.0 mi Calm Calm - N/A   Clear
8:35 PM 69.1 °F 54.9 °F 60% 30.11 in 10.0 mi Calm Calm - N/A   Scattered Clouds
8:55 PM 69.4 °F 55.0 °F 60% 30.11 in 10.0 mi Calm Calm - N/A   Scattered Clouds
9:15 PM 69.1 °F 55.4 °F 62% 30.11 in 10.0 mi Calm Calm - N/A   Scattered Clouds
9:35 PM 69.3 °F 55.4 °F 61% 30.11 in 10.0 mi Calm Calm - N/A   Scattered Clouds
9:55 PM 69.4 °F 55.6 °F 61% 30.11 in 10.0 mi Calm Calm - N/A   Scattered Clouds
10:15 PM 69.8 °F 55.8 °F 61% 30.11 in 10.0 mi Calm Calm - N/A   Scattered Clouds
10:35 PM 69.8 °F 55.8 °F 61% 30.12 in 10.0 mi Calm Calm - N/A   Mostly Cloudy
10:55 PM 70.0 °F 56.1 °F 61% 30.12 in 10.0 mi Calm Calm - N/A   Scattered Clouds
11:15 PM 69.4 °F 56.3 °F 63% 30.12 in 10.0 mi Calm Calm - N/A   Mostly Cloudy
11:35 PM 69.6 °F 56.3 °F 63% 30.12 in 10.0 mi Calm Calm - N/A   Mostly Cloudy
11:55 PM 69.4 °F 56.7 °F 64% 30.12 in 10.0 mi Calm Calm - N/A   Mostly Cloudy